This is the latest recevied weather packets stored in our database for station/object N3FAA. If no packets are shown the sender has not sent any weather packets the latest 10 day(s).
| Time | Temp. | Humidity | Pressure | Rain* | Wind** | Luminosity | Snow |
|---|---|---|---|---|---|---|---|
| 1778114970 | 26.67° C | 32% | 1012.3 hPa | 0 mm | - | 273 W/m² | - |
| 1778114667 | 26.67° C | 31% | 1012.3 hPa | 0 mm | - | 282 W/m² | - |
| 1778114364 | 27.22° C | 31% | 1012.2 hPa | 0 mm | - | 302 W/m² | - |
| 1778114059 | 27.22° C | 30% | 1012.2 hPa | 0 mm | - | 310 W/m² | - |
| 1778113755 | 27.78° C | 29% | 1012.1 hPa | 0 mm | - | 341 W/m² | - |
| 1778113451 | 28.33° C | 28% | 1011.9 hPa | 0 mm | - | 359 W/m² | - |
| 1778113148 | 28.89° C | 21% | 1012.3 hPa | 0 mm | - | 384 W/m² | - |
| 1778112845 | 28.89° C | 22% | 1012.2 hPa | 0 mm | - | 397 W/m² | - |
| 1778112543 | 29.44° C | 22% | 1012.2 hPa | 0 mm | - | 409 W/m² | - |
| 1778112237 | 29.44° C | 22% | 1012.1 hPa | 0 mm | - | 446 W/m² | - |
| 1778111934 | 28.33° C | 22% | 1012.1 hPa | 0 mm | - | 451 W/m² | - |
| 1778111631 | 28.33° C | 22% | 1012.2 hPa | 0 mm | - | 430 W/m² | - |
| 1778111327 | 28.89° C | 22% | 1012.2 hPa | 0 mm | - | 463 W/m² | - |
| 1778111025 | 29.44° C | 21% | 1012.1 hPa | 0 mm | - | 516 W/m² | - |
| 1778110722 | 28.89° C | 22% | 1012.2 hPa | 0 mm | - | 525 W/m² | - |
| 1778110418 | 28.89° C | 22% | 1012.2 hPa | 0 mm | - | 534 W/m² | - |
| 1778110115 | 28.89° C | 22% | 1012.2 hPa | 0 mm | - | 568 W/m² | - |
| 1778109811 | 28.89° C | 22% | 1012.3 hPa | 0 mm | - | 579 W/m² | - |
| 1778109507 | 28.33° C | 22% | 1012.2 hPa | 0 mm | - | 606 W/m² | - |
| 1778109205 | 28.89° C | 22% | 1012.3 hPa | 0 mm | - | 632 W/m² | - |
| 1778108902 | 28.89° C | 22% | 1012.3 hPa | 0 mm | - | 632 W/m² | - |
| 1778108599 | 28.33° C | 23% | 1012.4 hPa | 0 mm | - | 636 W/m² | - |
| 1778108295 | 28.89° C | 23% | 1012.4 hPa | 0 mm | - | 638 W/m² | - |
| 1778107993 | 28.33° C | 23% | 1012.4 hPa | 0 mm | - | 616 W/m² | - |
| 1778107689 | 27.78° C | 23% | 1012.5 hPa | 0 mm | - | 544 W/m² | - |
* Rain latest hour (hover to see other rain measurements)
** Current wind speed in m/s (hover to see current wind gust speed)